Weather History for St. James, MN

Change the Weather History Date:

Wednesday, May 13, 2009

  Actual Average Record
Temperature  
Mean Temperature 64 °F -  
Max Temperature 71 °F 69 °F 91 °F (1987)
Min Temperature 57 °F 43 °F 28 °F (1997)
Degree Days  
Heating Degree Days 1    
Growing Degree Days 14 (Base 50)    
Moisture  
Dew Point 51 °F    
Average Humidity 70    
Maximum Humidity 100    
Minimum Humidity 22    
Precipitation  
Precipitation 0.02 in - - ()
Sea Level Pressure  
Sea Level Pressure 29.59 in    
Wind  
Wind Speed 16 mph (WSW)    
Max Wind Speed 34 mph    
Max Gust Speed 45 mph    
Visibility 8 miles    
Events Rain    
Averages and records for this station are not official NWS values.
T = Trace of Precipitation, MM = Missing Value Source: NWS Daily Summary

Daily Weather History Graph

Daily Weather History Graph

Search for Another Location

Airport:

Trip Planner

Search our weather history database for the weather conditions in past years. The results will help you decide how hot, cold, wet, or windy it might be!

Date:

Astronomy

May. 13, 2009 Rise Set
Actual Time 5:54 AM CDT 8:35 PM CDT
Civil Twilight 5:20 AM CDT 9:08 PM CDT
Nautical Twilight 4:39 AM CDT 9:50 PM CDT
Astronomical Twilight 3:51 AM CDT 10:39 PM CDT
Moon 12:18 AM CDT (5/13) 9:01 AM CDT (5/13)
Length of Visible Light 15h 48m
Length of Day
14h 41m
Waning Gibbous, 82% of the Moon is Illuminated
May 13
Waning Gibbous
May 17
Last Quarter
May 24
New
May 30
First Quarter
Jun 7
Full

Hourly Weather History & Observations

Time (CDT) Temp. Dew Point Humidity Pressure Visibility Wind Dir Wind Speed Gust Speed Precip Events Conditions
12:15 AM 57.2 °F 55.4 °F 94% 29.60 in 3.0 mi SSE 21.9 mph 26.5 mph N/A   Overcast
12:35 AM 57.2 °F 55.4 °F 94% 29.61 in 2.5 mi SE 19.6 mph 27.6 mph N/A   Overcast
12:55 AM 57.2 °F 55.4 °F 94% 29.61 in 3.0 mi SSE 18.4 mph 25.3 mph N/A   Overcast
1:15 AM 57.2 °F 55.4 °F 94% 29.62 in 2.5 mi SSE 21.9 mph 26.5 mph N/A   Overcast
1:35 AM 57.2 °F 55.4 °F 94% 29.62 in 2.5 mi SSE 17.3 mph - N/A   Overcast
1:55 AM 57.2 °F 55.4 °F 94% 29.61 in 2.5 mi SSE 15.0 mph - N/A   Overcast
2:15 AM 57.2 °F 55.4 °F 94% 29.59 in 3.0 mi SE 17.3 mph - N/A   Overcast
2:35 AM 59.0 °F 55.4 °F 88% 29.58 in 5.0 mi SE 17.3 mph 23.0 mph N/A   Overcast
2:55 AM 59.0 °F 55.4 °F 88% 29.59 in 7.0 mi SSE 13.8 mph - N/A   Overcast
3:15 AM 59.0 °F 55.4 °F 88% 29.58 in 7.0 mi SSE 18.4 mph 23.0 mph N/A   Overcast
3:35 AM 59.0 °F 55.4 °F 88% 29.58 in 4.0 mi SSE 16.1 mph - N/A   Overcast
3:55 AM 59.0 °F 55.4 °F 88% 29.59 in 4.0 mi SSE 15.0 mph - N/A   Overcast
4:15 AM 59.0 °F 55.4 °F 88% 29.57 in 4.0 mi SSE 18.4 mph - N/A   Overcast
4:35 AM 59.0 °F 57.2 °F 94% 29.57 in 5.0 mi SSE 16.1 mph - N/A Rain Light Rain
4:55 AM 59.0 °F 57.2 °F 94% 29.57 in 7.0 mi SSE 19.6 mph - N/A   Overcast
5:15 AM 59.0 °F 57.2 °F 94% 29.60 in 7.0 mi South 19.6 mph - N/A Rain Rain
5:35 AM 59.0 °F 57.2 °F 94% 29.57 in 7.0 mi South 19.6 mph - 0.01 in Rain Light Rain
5:55 AM 59.0 °F 57.2 °F 94% 29.55 in 7.0 mi SSE 20.7 mph 28.8 mph 0.02 in Rain Light Rain
6:15 AM 59.0 °F 57.2 °F 94% 29.53 in 7.0 mi SSE 19.6 mph 31.1 mph N/A   Mostly Cloudy
6:35 AM 59.0 °F 57.2 °F 94% 29.54 in 7.0 mi South 20.7 mph 26.5 mph N/A   Mostly Cloudy
6:55 AM 60.8 °F 57.2 °F 88% 29.57 in 10.0 mi SSW 9.2 mph - N/A   Overcast
7:15 AM 60.8 °F 59.0 °F 94% 29.57 in 10.0 mi South 9.2 mph - N/A   Overcast
7:35 AM 60.8 °F 59.0 °F 94% 29.57 in 10.0 mi SSW 6.9 mph - N/A   Overcast
7:55 AM 60.8 °F 59.0 °F 94% 29.57 in 10.0 mi SW 5.8 mph - N/A   Mostly Cloudy
8:15 AM 60.8 °F 59.0 °F 94% 29.58 in 7.0 mi West 6.9 mph - N/A   Overcast
8:35 AM 60.8 °F 60.8 °F 100% 29.57 in 10.0 mi West 5.8 mph - N/A   Mostly Cloudy
8:55 AM 62.6 °F 60.8 °F 94% 29.56 in 10.0 mi West 8.1 mph - N/A   Scattered Clouds
9:15 AM 62.6 °F 60.8 °F 94% 29.57 in 10.0 mi West 9.2 mph - N/A   Mostly Cloudy
9:35 AM 64.4 °F 60.8 °F 88% 29.57 in 10.0 mi West 9.2 mph - N/A   Overcast
9:55 AM 64.4 °F 60.8 °F 88% 29.57 in 10.0 mi West 11.5 mph - N/A   Overcast
10:15 AM 66.2 °F 60.8 °F 83% 29.57 in 10.0 mi West 9.2 mph - N/A   Mostly Cloudy
10:35 AM 66.2 °F 59.0 °F 78% 29.57 in 10.0 mi West 9.2 mph - N/A   Mostly Cloudy
10:55 AM 66.2 °F 59.0 °F 78% 29.57 in 10.0 mi West 6.9 mph - N/A   Mostly Cloudy
11:15 AM 69.8 °F 57.2 °F 64% 29.57 in 10.0 mi NW 8.1 mph - N/A   Scattered Clouds
11:35 AM 68.0 °F 55.4 °F 64% 29.58 in 10.0 mi WNW 5.8 mph - N/A   Scattered Clouds
11:55 AM 69.8 °F 55.4 °F 60% 29.59 in 10.0 mi WNW 9.2 mph - N/A   Scattered Clouds
12:15 PM 69.8 °F 53.6 °F 56% 29.60 in 10.0 mi WSW 6.9 mph - N/A   Mostly Cloudy
12:35 PM 69.8 °F 51.8 °F 53% 29.60 in 10.0 mi West 10.4 mph - N/A   Mostly Cloudy
12:55 PM 69.8 °F 51.8 °F 53% 29.60 in 10.0 mi West 10.4 mph - N/A   Mostly Cloudy
1:15 PM 69.8 °F 50.0 °F 49% 29.59 in 10.0 mi West 11.5 mph - N/A   Scattered Clouds
1:35 PM 69.8 °F 48.2 °F 46% 29.59 in 10.0 mi West 9.2 mph - N/A   Scattered Clouds
1:55 PM 69.8 °F 46.4 °F 43% 29.60 in 10.0 mi West 10.4 mph - N/A   Scattered Clouds
2:15 PM 69.8 °F 48.2 °F 46% 29.59 in 10.0 mi NW 11.5 mph - N/A   Scattered Clouds
2:35 PM 71.6 °F 48.2 °F 43% 29.59 in 10.0 mi West 16.1 mph 21.9 mph N/A   Scattered Clouds
2:55 PM 71.6 °F 46.4 °F 41% 29.58 in 10.0 mi West 12.7 mph 20.7 mph N/A   Scattered Clouds
3:15 PM 69.8 °F 44.6 °F 40% 29.60 in 10.0 mi West 17.3 mph 20.7 mph N/A   Clear
3:35 PM 69.8 °F 46.4 °F 43% 29.60 in 10.0 mi West 15.0 mph 24.2 mph N/A   Clear
3:55 PM 69.8 °F 41.0 °F 35% 29.62 in 10.0 mi West 17.3 mph 20.7 mph N/A   Clear
4:15 PM 69.8 °F 39.2 °F 33% 29.60 in 10.0 mi WNW 19.6 mph - N/A   Clear
4:35 PM 68.0 °F 39.2 °F 35% 29.61 in 10.0 mi West 15.0 mph - N/A   Clear
4:55 PM 68.0 °F 39.2 °F 35% 29.60 in 10.0 mi West 16.1 mph 21.9 mph N/A   Clear
5:15 PM 69.8 °F 41.0 °F 35% 29.60 in 10.0 mi WNW 11.5 mph - N/A   Clear
5:35 PM 69.8 °F 33.8 °F 27% 29.60 in 10.0 mi West 21.9 mph 33.4 mph N/A   Clear
5:55 PM 68.0 °F 30.2 °F 24% 29.62 in 10.0 mi West 25.3 mph 35.7 mph N/A   Clear
6:15 PM 69.8 °F 33.8 °F 27% 29.64 in 10.0 mi West 24.2 mph 34.5 mph N/A   Clear
6:35 PM 66.2 °F 28.4 °F 24% 29.65 in 7.0 mi West 34.5 mph 44.9 mph N/A   Clear
6:55 PM 64.4 °F 26.6 °F 24% 29.66 in 10.0 mi West 29.9 mph 43.7 mph N/A   Clear
7:15 PM 64.4 °F 24.8 °F 22% 29.66 in 10.0 mi West 28.8 mph 40.3 mph N/A   Clear
7:35 PM 64.4 °F 21.2 °F 19% 29.67 in 10.0 mi West 28.8 mph 40.3 mph N/A   Clear
7:55 PM 62.6 °F 17.6 °F 18% 29.67 in 10.0 mi West 25.3 mph 38.0 mph N/A   Clear
8:15 PM 60.8 °F 19.4 °F 20% 29.67 in 10.0 mi West 20.7 mph 26.5 mph N/A   Clear
8:35 PM 60.8 °F 21.2 °F 22% 29.67 in 10.0 mi West 19.6 mph - N/A   Clear
8:55 PM 59.0 °F 23.0 °F 25% 29.68 in 10.0 mi West 20.7 mph 26.5 mph N/A   Clear
9:15 PM 57.2 °F 24.8 °F 29% 29.69 in 10.0 mi West 18.4 mph - N/A   Clear
9:35 PM 57.2 °F 24.8 °F 29% 29.70 in 10.0 mi West 19.6 mph 27.6 mph N/A   Clear
9:55 PM 57.2 °F 26.6 °F 31% 29.71 in 10.0 mi West 18.4 mph 25.3 mph N/A   Clear
10:15 PM 55.4 °F 30.2 °F 38% 29.72 in 10.0 mi West 20.7 mph 26.5 mph N/A   Scattered Clouds
10:35 PM 55.4 °F 32.0 °F 41% 29.73 in 10.0 mi West 19.6 mph 24.2 mph N/A   Scattered Clouds
10:55 PM 53.6 °F 33.8 °F 47% 29.74 in 10.0 mi WSW 18.4 mph 24.2 mph N/A   Clear
11:15 PM 53.6 °F 33.8 °F 47% 29.74 in 10.0 mi West 20.7 mph 25.3 mph N/A   Clear
11:35 PM 53.6 °F 33.8 °F 47% 29.76 in 10.0 mi WSW 23.0 mph 31.1 mph N/A   Clear
11:55 PM 51.8 °F 35.6 °F 54% 29.77 in 10.0 mi West 23.0 mph 34.5 mph N/A   Clear